Fort Knox, KY

5:51 PM EST on December 07, 2019 (GMT -0500)
Godman Army Air Field

Weather History for KFTK - October, 2019

Change the Weather History Date:

Tuesday, October 29, 2019

  Actual Average Record
Temperature  
Mean Temperature 52 °F -  
Max Temperature 59 °F 62 °F 81 °F (2016)
Min Temperature 44 °F 42 °F 28 °F (2017)
Degree Days  
Heating Degree Days 14    
Growing Degree Days 2 (Base 50)    
Moisture  
Dew Point 51 °F    
Average Humidity 93    
Maximum Humidity 100    
Minimum Humidity 71    
Precipitation  
Precipitation 0.00 in - - ()
Sea Level Pressure  
Sea Level Pressure 30.15 in    
Wind  
Wind Speed 1 mph (South)    
Max Wind Speed 7 mph    
Max Gust Speed -    
Visibility 8 miles    
Events Fog    
Averages and records for this station are not official NWS values.
T = Trace of Precipitation, MM = Missing Value Source: NWS Daily Summary

Daily Weather History Graph

Daily Weather History Graph

Search for Another Location

Airport or City:

Astronomy

Oct. 29, 2019 Rise Set
Actual Time 8:06 AM EDT 6:48 PM EDT
Civil Twilight 7:39 AM EDT 7:15 PM EDT
Nautical Twilight 7:08 AM EDT 7:46 PM EDT
Astronomical Twilight 6:37 AM EDT 8:17 PM EDT
Moon 9:38 AM EDT (10/29) 8:13 PM EDT (10/29)
Length of Visible Light 11h 36m
Length of Day
10h 42m
Waxing Crescent, 3% of the Moon is Illuminated
Oct 29
Waxing Crescent
Nov 4
First Quarter
Nov 12
Full
Nov 19
Last Quarter
Nov 26
New

Hourly Weather History & Observations

Time (EDT) Temp. Dew Point Humidity Pressure Visibility Wind Dir Wind Speed Gust Speed Precip Events Conditions
12:06 AM 46.4 °F 46.4 °F 100% 30.09 in 1.1 mi Calm Calm - N/A   Clear
12:16 AM 44.6 °F 44.6 °F 100% 30.09 in 0.8 mi Calm Calm - N/A   Clear
12:31 AM 46.4 °F 46.4 °F 100% 30.09 in 0.4 mi Calm Calm - N/A Fog Fog
12:56 AM 45.7 °F 45.7 °F 100% 30.10 in 0.2 mi Calm Calm - N/A Fog Fog
1:11 AM 48.2 °F 48.2 °F 100% 30.09 in 1.8 mi Calm Calm - N/A   Mostly Cloudy
1:26 AM 48.2 °F 48.2 °F 100% 30.09 in 10.0 mi Calm Calm - N/A   Overcast
1:56 AM 48.0 °F 48.0 °F 100% 30.09 in 10.0 mi Calm Calm - N/A   Scattered Clouds
2:11 AM 46.4 °F 46.4 °F 100% 30.09 in 10.0 mi Calm Calm - N/A   Mostly Cloudy
2:56 AM 49.8 °F 49.8 °F 100% 30.09 in 10.0 mi Calm Calm - N/A   Overcast
4:26 AM 51.8 °F 51.8 °F 100% 30.09 in 10.0 mi Calm Calm - N/A   Overcast
4:56 AM 52.0 °F 52.0 °F 100% 30.10 in 10.0 mi Calm Calm - N/A   Overcast
5:44 AM 51.8 °F 51.8 °F 100% 30.08 in 10.0 mi SE 6.9 mph - N/A   Overcast
5:47 AM 51.8 °F 51.8 °F 100% 30.10 in 10.0 mi SSE 3.5 mph - N/A   Overcast
5:56 AM 51.4 °F 51.4 °F 100% 30.10 in 10.0 mi Calm Calm - N/A   Mostly Cloudy
6:09 AM 50.0 °F 50.0 °F 100% 30.08 in 10.0 mi SE 5.8 mph - N/A   Partly Cloudy
6:13 AM 50.0 °F 50.0 °F 100% 30.10 in 10.0 mi SE 4.6 mph - N/A   Partly Cloudy
6:43 AM 48.2 °F 48.2 °F 100% 30.11 in 1.1 mi Calm Calm - N/A   Clear
6:56 AM 47.1 °F 47.1 °F 100% 30.12 in 3.0 mi Calm Calm - N/A   Clear
7:05 AM 48.2 °F 48.2 °F 100% 30.12 in 3.0 mi Calm Calm - N/A   Partly Cloudy
7:06 AM 48.2 °F 48.2 °F 100% 30.12 in 0.8 mi Calm Calm - N/A   Partly Cloudy
7:30 AM 48.2 °F 48.2 °F 100% 30.13 in 4.0 mi Calm Calm - N/A   Overcast
7:56 AM 50.0 °F 50.0 °F 100% 30.14 in 10.0 mi Calm Calm - N/A   Overcast
8:26 AM 51.8 °F 51.8 °F 100% 30.15 in 10.0 mi South 4.6 mph - N/A   Overcast
8:56 AM 52.2 °F 52.2 °F 100% 30.16 in 10.0 mi South 3.5 mph - N/A   Overcast
9:31 AM 53.6 °F 53.6 °F 100% 30.19 in 10.0 mi South 3.5 mph - N/A   Overcast
9:46 AM 53.6 °F 53.6 °F 100% 30.19 in 10.0 mi South 3.5 mph - N/A   Overcast
9:56 AM 53.8 °F 53.8 °F 100% 30.19 in 10.0 mi South 5.8 mph - N/A   Overcast
10:18 AM 53.6 °F 53.6 °F 100% 30.20 in 10.0 mi South 4.6 mph - N/A   Overcast
10:56 AM 55.6 °F 55.6 °F 100% 30.20 in 10.0 mi SSW 3.5 mph - N/A   Overcast
11:56 AM 56.7 °F 56.7 °F 100% 30.21 in 10.0 mi South 3.5 mph - N/A   Overcast
12:11 PM 59.0 °F 53.6 °F 82% 30.21 in 10.0 mi SW 3.5 mph - N/A   Overcast
12:26 PM 59.0 °F 53.6 °F 82% 30.21 in 10.0 mi SE 3.5 mph - N/A   Overcast
12:56 PM 58.8 °F 51.3 °F 76% 30.21 in 10.0 mi WSW 4.6 mph - N/A   Overcast
1:26 PM 59.0 °F 51.8 °F 77% 30.19 in 10.0 mi South 3.5 mph - N/A   Overcast
1:56 PM 59.4 °F 50.7 °F 73% 30.18 in 10.0 mi South 3.5 mph - N/A   Overcast
2:56 PM 59.9 °F 50.5 °F 71% 30.18 in 10.0 mi SSW 3.5 mph - N/A   Overcast
3:28 PM 59.0 °F 51.8 °F 77% 30.20 in 10.0 mi South 3.5 mph - N/A   Overcast
3:56 PM 59.5 °F 50.9 °F 73% 30.20 in 10.0 mi South 3.5 mph - N/A   Overcast
4:56 PM 59.4 °F 50.7 °F 73% 30.20 in 10.0 mi Calm Calm - N/A   Overcast
5:56 PM 59.0 °F 50.0 °F 72% 30.20 in 10.0 mi Calm Calm - N/A   Overcast
6:56 PM 59.0 °F 51.8 °F 77% 30.19 in 10.0 mi Calm Calm - N/A   Overcast
7:56 PM 57.2 °F 51.8 °F 82% 30.19 in 10.0 mi Calm Calm - N/A   Overcast
8:56 PM 57.2 °F 51.8 °F 82% 30.19 in 10.0 mi ENE 4.6 mph - N/A   Overcast
9:56 PM 55.0 °F 51.6 °F 88% 30.19 in 10.0 mi NE 3.5 mph - N/A   Mostly Cloudy
10:56 PM 52.9 °F 52.5 °F 99% 30.19 in 10.0 mi NE 3.5 mph - N/A   Scattered Clouds